Location: Taukkyan
(23.1052°N, 94.0030°E)
Time: 11:28:55
(UTC+00:00)

Ariane Rocket - Pass Details

Date: 06 July 2020
Orbit: 759 x 771 km, 98.7° (Epoch: 14 August)

Event Time Altitude Azimuth Distance (km) Brightness Sun altitude
Exits shadow 13:51:38 - 178° (S) 2,376 5.2 -16.4°
Reaches altitude 10° 13:51:49 10° 179° (S) 2,304 5.1 -16.4°
Maximum altitude 13:56:49 60° 258° (WSW) 878 3.5 -17.4°
Drops below altitude 10° 14:01:51 10° 338° (NNW) 2,311 6.3 -18.3°
Sets 14:04:11 0° 342° (NNW) 3,239 7.1 -18.8°
